Date,TemperatureHighF,TemperatureAvgF,TemperatureLowF,DewpointHighF,DewpointAvgF,DewpointLowF,HumidityHigh,HumidityAvg,HumidityLow,PressureMaxIn,PressureMinIn,WindSpeedMaxMPH,WindSpeedAvgMPH,GustSpeedMaxMPH,PrecipitationSumIn
2013-5-1,87,66,47,48,36,22,73,41,11,30.08,29.87,8,1,12,0.00
2013-5-2,89,66,44,49,37,24,79,42,12,30.15,30.06,9,1,16,0.00
2013-5-3,88,66,46,54,42,32,82,46,15,30.07,29.79,6,1,13,0.00
2013-5-4,86,62,46,53,47,39,89,65,20,29.79,29.57,14,2,21,0.00
2013-5-5,64,57,54,52,50,49,86,78,66,29.82,29.63,11,2,17,0.00
2013-5-6,69,59,49,54,51,47,93,77,53,29.97,29.81,12,1,16,0.00
2013-5-7,72,59,49,56,51,47,94,77,49,30.04,29.97,11,2,17,0.00
2013-5-8,68,54,47,58,50,45,94,85,65,30.13,30.03,9,1,12,0.00
2013-5-9,70,56,46,56,50,44,95,81,59,30.16,30.06,9,2,13,0.00
2013-5-10,76,58,47,60,52,45,95,82,53,30.18,30.08,8,1,14,0.00
2013-5-11,84,62,46,63,53,44,95,76,43,30.14,30.03,9,1,10,0.00
2013-5-12,83,62,42,63,50,41,95,72,26,30.14,30.00,6,1,15,0.00
2013-5-13,86,64,45,64,53,44,95,71,39,30.07,29.92,7,1,11,0.00
2013-5-14,88,65,48,61,51,44,94,67,23,29.96,29.86,7,1,11,0.00
2013-5-15,78,60,42,54,48,40,95,67,40,30.02,29.96,9,2,15,0.00
2013-5-16,70,61,52,56,50,46,82,68,50,30.00,29.92,15,3,26,0.00
2013-5-17,69,57,42,53,46,40,94,69,42,30.06,29.96,12,2,19,0.00
2013-5-18,81,61,40,55,47,39,95,64,36,30.12,30.05,9,2,19,0.00
2013-5-19,83,65,44,51,46,39,92,56,21,30.13,29.96,13,1,14,0.00
2013-5-20,87,66,47,57,47,37,92,59,18,30.00,29.87,14,1,14,0.00
2013-5-21,73,58,45,53,44,34,95,64,30,30.00,29.90,17,3,22,0.00
2013-5-22,68,57,44,45,36,29,68,47,27,30.04,29.89,13,3,17,0.00
2013-5-23,72,58,44,46,41,38,80,57,33,30.00,29.91,11,2,16,0.00
2013-5-24,74,56,38,50,43,35,94,65,35,29.99,29.89,8,1,13,0.00
2013-5-25,75,57,39,50,45,38,95,68,39,30.03,29.94,10,2,16,0.00
2013-5-26,72,60,47,55,50,45,93,69,50,30.10,30.02,16,4,22,0.00
2013-5-27,63,55,45,57,51,43,94,87,73,30.10,29.99,9,1,12,0.11
2013-5-28,72,62,54,60,54,50,95,79,57,30.00,29.90,9,2,16,0.04
2013-5-29,75,64,52,57,53,46,89,69,48,29.95,29.88,11,2,17,0.00
2013-5-30,81,62,41,54,46,39,94,60,31,29.98,29.91,7,1,14,0.00
2013-5-31,91,67,45,58,50,42,93,60,24,30.01,29.88,7,1,14,0.00